Regional Weather Roundup
Issued by NWS

Home | Current Version | Previous Version | Text Only | Print | Product List | Glossary Off
Versions: 1 2 3 4 5 6 7 8 9 10 11 12 13 14 15 16 17 18 19 20 21 22 23 24 25 26 27 28 29 30 31 32 33 34 35 36 37 38 39 40 41 42 43 44 45 46 47 48 49 50

000
ASUS43 KOAX 180210
RWRNE

WEATHER ROUNDUP FOR NEBRASKA
NATIONAL WEATHER SERVICE OMAHA NE
900 PM CDT TUE OCT 17 2017

NOTES: SATELLITE DATA IS BEING USED TO AUGMENT CLOUD COVER ABOVE
       12000 FEET.
       "FAIR" INDICATES FEW OR NO CLOUDS BELOW 12,000 FEET WITH NO
       SIGNIFICANT WEATHER AND/OR OBSTRUCTIONS TO VISIBILITY.


NEZ001>004-019>022-054>056-180300-
NEBRASKA PANHANDLE

CITY           SKY/WX    TMP DP  RH WIND       PRES   REMARKS
SCOTTSBLUFF    CLOUDY    52  27  38 CALM      29.97S
ALLIANCE       CLEAR     49  22  34 CALM      29.96S
CHADRON        CLEAR     51  22  31 W10       29.89F
GORDON         FAIR      55  26  33 W7        29.91S
KIMBALL        CLOUDY    49  24  37 W7        30.06S
SIDNEY         CLOUDY    44  23  43 W10       30.03S
$$

NEZ057>060-069>072-079>082-180300-
SOUTHWEST NEBRASKA

CITY           SKY/WX    TMP DP  RH WIND       PRES   REMARKS
NORTH PLATTE   CLEAR     56  33  42 SE3       29.96S
IMPERIAL       CLEAR     54  26  34 S7        29.99S
LEXINGTON      CLEAR     58  37  45 SE6       29.98F
MCCOOK         CLEAR     60  35  39 S8        29.99S
OGALLALA       CLEAR     61  28  28 CALM      29.97S
$$

NEZ005>010-023>029-035>040-094-180300-
NORTH CENTRAL NEBRASKA

CITY           SKY/WX    TMP DP  RH WIND       PRES   REMARKS
VALENTINE      CLEAR     53  28  38 SW7       29.89F
AINSWORTH      CLEAR     54  35  48 S7        29.91F
BROKEN BOW     CLEAR     45  40  82 CALM      29.96F
O`NEILL        CLEAR     61  41  48 SE6       29.93S
ORD            CLEAR     50  39  66 S8        29.94F
THEDFORD       CLEAR     62  29  29 S9        29.95S
$$

NEZ041-046>049-061>064-073>077-083>087-180300-
SOUTH CENTRAL NEBRASKA

CITY           SKY/WX    TMP DP  RH WIND       PRES   REMARKS
GRAND ISLAND   CLEAR     57  44  62 S8        29.99S
AURORA         CLEAR     61  43  52 S7        29.99S
HASTINGS       CLEAR     61  42  49 S7        30.00S
HEBRON         CLEAR     54  46  76 CALM      30.00F
HOLDREGE       CLEAR     52  39  61 S6        30.00S
KEARNEY        CLEAR     55  40  56 S10       29.99F
YORK           PTCLDY    59  45  58 S7        29.99F
$$

NEZ011>018-030>034-042>045-180300-
NORTHEAST NEBRASKA

CITY           SKY/WX    TMP DP  RH WIND       PRES   REMARKS
NORFOLK        CLEAR     59  44  57 S12       29.96S
ALBION         PTCLDY    58  41  52 SE3       29.97S
BLAIR          CLEAR     58  47  66 S5        30.00S
COLUMBUS       PTCLDY    59  45  59 SE6       29.98F
FREMONT        CLEAR     57  46  65 SE6       29.99F
TEKAMAH        CLEAR     50  45  83 S7        29.98F
WAYNE          CLEAR     57  44  60 S10       29.96S
$$

NEZ050>053-065>068-078-088>093-180300-
SOUTHEAST NEBRASKA

CITY           SKY/WX    TMP DP  RH WIND       PRES   REMARKS
LINCOLN        CLEAR     60  47  61 S3        30.01S
OMAHA EPPLEY   CLEAR     60  46  59 S5        30.00S
BEATRICE       CLEAR     59  48  67 S7        30.01S
FALLS CITY     CLEAR     60  47  61 S8        30.03S
NEBRASKA CITY  CLEAR     56  46  69 S5        30.01F
PLATTSMOUTH    CLEAR     59  47  63 S7        30.01S
$$

NEZ044-045-051>053-067-180300-
OMAHA AREA

CITY           SKY/WX    TMP DP  RH WIND       PRES   REMARKS
OMAHA EPPLEY   CLEAR     60  46  59 S5        30.00S
BLAIR          CLEAR     58  47  66 S5        30.00S
FREMONT        CLEAR     57  46  65 SE6       29.99F
MILLARD        CLEAR     56  49  76 CALM      30.00S
OFFUTT AFB     CLEAR     50  46  86 E3        30.00S
PLATTSMOUTH    CLEAR     59  47  63 S7        30.01S
WAHOO          FAIR      54  44  69 S6        30.00S
$$




USA.gov is the U.S. government's official web portal to all federal, state and local government web resources and services.